Regional Weather Roundup
Issued by NWS Charleston, WV

Home | Current Version | Previous Version | Text Only | Print | Product List | Glossary Off
Versions: 1 2 3 4 5 6 7 8 9 10 11 12 13 14 15 16 17 18 19 20 21 22 23 24 25 26 27 28 29 30 31 32 33 34 35 36 37 38 39 40 41 42 43 44 45 46 47 48 49 50

000
ASUS41 KRLX 290410
RWRRLX
West Virginia Regional Weather Roundup
National Weather Service Charleston WV
1200 AM EDT SUN MAR 29 2015

Note: "fair" indicates few or no clouds below 12,000 feet with no
significant weather and/or obstructions to visibility.

WVZ003-290500-
Northern Panhandle of West Virginia

CITY           SKY/WX    TMP DP  RH WIND       PRES   REMARKS
WHEELING       CLEAR     21   8  57 W6        30.30R
$$

WVZ009-290500-
Northwest West Virginia

CITY           SKY/WX    TMP DP  RH WIND       PRES   REMARKS
PARKERSBURG    CLEAR     24   9  52 N3        30.37R
$$

WVZ006-290500-
Western West Virginia

CITY           SKY/WX    TMP DP  RH WIND       PRES   REMARKS
HUNTINGTON     CLEAR     27  11  51 N3        30.35R
$$

WVZ015-290500-
West Central West Virginia

CITY           SKY/WX    TMP DP  RH WIND       PRES   REMARKS
CHARLESTON     CLEAR     28   9  44 N7        30.33R
$$

WVZ022-031-290500-
North Central West Virginia

CITY           SKY/WX    TMP DP  RH WIND       PRES   REMARKS
CLARKSBURG     CLEAR     24   6  46 NW9       30.29R
MORGANTOWN     CLEAR     24   3  40 CALM      30.30R
$$

WVZ025-035-042-045-290500-
Southern West Virginia

CITY           SKY/WX    TMP DP  RH WIND       PRES   REMARKS
BECKLEY        CLEAR     21   5  50 NW6       30.22R
LOGAN            N/A     27   7  43 CALM      30.26R
BLUEFIELD      CLEAR     23   5  46 NW5       30.21R
LEWISBURG      CLEAR     25   6  44 NW6       30.22R
$$

WVZ047-290500-
Northern Mountains of West Virginia

CITY           SKY/WX    TMP DP  RH WIND       PRES   REMARKS
ELKINS         CLEAR     21   7  54 NW6       30.24R
$$

WVZ052-290500-
Eastern Panhandle of West Virginia

CITY           SKY/WX    TMP DP  RH WIND       PRES   REMARKS
MARTINSBURG    CLEAR     28   4  35 NW16G23   30.26R
PETERSBURG     CLEAR     29   4  35 NW8G18    30.27R
$$



USA.gov is the U.S. government's official web portal to all federal, state and local government web resources and services.